Powrót do katalogu

STARLINK-36612

AktywnyŁącznośćSSO
NORAD 67580·PAYLOAD·🇺🇸 United States

Wystrzelony Jan 25, 2026 z Vandenberg Space Force Base

Loading…

Następne Przeloty (najbliższe 24 godziny)

TLE

ŚwieżeSource: CelesTrak SupGP

Epoka: Sep 15, 2026, 03:08 UTC

1 67580C 26016V   26258.13104167  .00022163  00000+0  68792-3 0  2583
2 67580  97.2846 316.9336 0000890  79.8565 208.2119 15.33431739    15

Śledź STARLINK-36612 w czasie rzeczywistym z AllMySat

Download on the App Store